350P/McNaught (2018)

Japanese version
Home page
Updated on May 22, 2017

---------------------------------------------------------------------

* Profile

Designation 350P/2017 B2
Recovery Date January 26, 2017
Magnitude 22.5 mag
Recoverer J. V. Scotti (Spacewatch, Kitt Peak)

* Orbital Elements

Epoch 2018 Feb. 11.0 TT = JDT 2458160.5
T 2018 Jan. 29.25345 TT                                 MPCW
q   3.7508728            (2000.0)            P               Q
n   0.11768071     Peri.  146.69932     -0.84188176     +0.52690642
a   4.1241318      Node    65.52119     -0.51889253     -0.73096372
e   0.0905061      Incl.    7.36322     -0.14827555     -0.43366078
P   8.38
From 114 observations 2005 Nov. 1-2017 Apr. 20, mean residual 0".5.

* Magnitudes Graph

        m1 = 13.5 + 5 log d + 10.0 log r

        * Gray curve is:  m1 = 10.2 + 5 log d + 10.0 log r

---------------------------------------------------------------------

The orbital elements are published on M.P.E.C. 2017-J52.
The magnitudes graphs are made with Comet for Windows.

---------------------------------------------------------------------

Copyright(C) Seiichi Yoshida (comet@aerith.net). All rights reserved.